ICO G1

Last updated on Sun Oct 26 2025 00:02:55 GMT+0000 (Coordinated Universal Time)

1 32763U 08016A 25298.51101469 -.00000159 00000+0 00000+0 0 9993 2 32763 5.5011 36.6883 0002557 160.6252 287.9685 1.00272815 64191
UTC large
Height (km)
Speed (km/s)
/
Latitude / Longitude
Inclination (degrees)
Orbital Period (minutes)
Azimuth
Elevation
Range (km)
Doppler Factor

Next 0 passes for location: London (51.5072 / 0.1276)

Sorry there are no passes over London.